timestamp,wind_dir_avg,wind_spd_max_dir,wind_spd_avg,wind_spd_gust,battery_voltage,lat,long
2018-04-08 00:00:00+00:00,239.0,243.0,6.56,8.09,,47.59359,-54.27349
2018-04-08 00:10:00+00:00,240.0,240.0,6.91,7.98,,47.59359,-54.27349
2018-04-08 00:20:00+00:00,238.0,241.0,6.87,7.92,,47.59359,-54.27349
2018-04-08 00:30:00+00:00,237.0,245.0,5.89,6.52,,47.59359,-54.27349
2018-04-08 00:40:00+00:00,239.0,238.0,6.43,7.84,,47.59359,-54.27349
2018-04-08 00:50:00+00:00,239.0,237.0,6.62,7.72,,47.59359,-54.27349
2018-04-08 01:00:00+00:00,238.0,241.0,6.67,7.75,,47.59359,-54.27349
2018-04-08 01:10:00+00:00,240.0,242.0,8.44,9.91,,47.59359,-54.27349
2018-04-08 01:20:00+00:00,245.0,248.0,8.5,9.49,,47.59359,-54.27349
2018-04-08 01:30:00+00:00,241.0,240.0,8.05,9.81,,47.59359,-54.27349
2018-04-08 01:40:00+00:00,244.0,246.0,7.33,8.69,,47.59359,-54.27349
2018-04-08 01:50:00+00:00,249.0,250.0,7.33,8.23,,47.59359,-54.27349
2018-04-08 02:00:00+00:00,251.0,256.0,6.93,8.12,,47.59359,-54.27349
2018-04-08 02:10:00+00:00,269.0,272.0,6.6,8.17,,47.59359,-54.27349
2018-04-08 02:20:00+00:00,279.0,282.0,7.3,8.61,,47.59359,-54.27349
2018-04-08 02:30:00+00:00,293.0,297.0,7.8,9.38,,47.59359,-54.27349
2018-04-08 02:40:00+00:00,285.0,282.0,7.74,9.35,,47.59359,-54.27349
2018-04-08 02:50:00+00:00,283.0,279.0,7.26,8.49,,47.59359,-54.27349
2018-04-08 03:00:00+00:00,278.0,274.0,5.09,6.25,,47.59359,-54.27349
2018-04-08 03:10:00+00:00,270.0,274.0,5.71,6.79,,47.59359,-54.27349
2018-04-08 03:20:00+00:00,272.0,275.0,5.37,5.76,,47.59359,-54.27349
2018-04-08 03:30:00+00:00,267.0,271.0,5.61,6.1,,47.59359,-54.27349
2018-04-08 03:40:00+00:00,271.0,274.0,5.82,6.85,,47.59359,-54.27349
2018-04-08 03:50:00+00:00,260.0,269.0,4.73,5.79,,47.59359,-54.27349
2018-04-08 04:00:00+00:00,253.0,250.0,4.43,5.11,,47.59359,-54.27349
2018-04-08 04:10:00+00:00,243.0,244.0,3.37,4.06,,47.59359,-54.27349
2018-04-08 04:20:00+00:00,247.0,242.0,3.28,3.97,,47.59359,-54.27349
2018-04-08 04:30:00+00:00,260.0,259.0,4.06,4.35,,47.59359,-54.27349
2018-04-08 04:40:00+00:00,265.0,260.0,3.47,3.72,,47.59359,-54.27349
2018-04-08 04:50:00+00:00,273.0,275.0,3.86,4.3,,47.59359,-54.27349
2018-04-08 05:00:00+00:00,278.0,286.0,4.3,4.7,,47.59359,-54.27349
2018-04-08 05:10:00+00:00,287.0,284.0,4.08,4.34,,47.59359,-54.27349
2018-04-08 05:20:00+00:00,302.0,301.0,4.86,5.21,,47.59359,-54.27349
2018-04-08 05:30:00+00:00,291.0,294.0,5.52,6.25,,47.59359,-54.27349
2018-04-08 05:40:00+00:00,293.0,297.0,6.11,6.54,,47.59359,-54.27349
2018-04-08 05:50:00+00:00,302.0,299.0,4.58,5.03,,47.59359,-54.27349
2018-04-08 06:00:00+00:00,296.0,304.0,3.59,4.21,,47.59359,-54.27349
2018-04-08 06:10:00+00:00,308.0,301.0,2.9,3.37,,47.59359,-54.27349
2018-04-08 06:20:00+00:00,336.0,337.0,4.51,4.99,,47.59359,-54.27349
2018-04-08 06:30:00+00:00,351.0,351.0,3.53,3.84,,47.59359,-54.27349
2018-04-08 06:40:00+00:00,7.0,12.0,3.04,3.46,,47.59359,-54.27349
2018-04-08 06:50:00+00:00,46.0,49.0,4.46,5.05,,47.59359,-54.27349
2018-04-08 07:00:00+00:00,46.0,47.0,5.27,5.63,,47.59359,-54.27349
2018-04-08 07:10:00+00:00,56.0,57.0,6.29,7.02,,47.59359,-54.27349
2018-04-08 07:20:00+00:00,59.0,58.0,7.39,7.95,,47.59359,-54.27349
2018-04-08 07:30:00+00:00,49.0,51.0,6.88,7.41,,47.59359,-54.27349
2018-04-08 07:40:00+00:00,62.0,61.0,7.33,7.57,,47.59359,-54.27349
2018-04-08 07:50:00+00:00,51.0,49.0,6.41,7.42,,47.59359,-54.27349
2018-04-08 08:00:00+00:00,70.0,70.0,7.85,8.54,,47.59359,-54.27349
2018-04-08 08:10:00+00:00,72.0,72.0,7.55,8.03,,47.59359,-54.27349
2018-04-08 08:20:00+00:00,71.0,74.0,7.82,8.76,,47.59359,-54.27349
2018-04-08 08:30:00+00:00,72.0,73.0,6.97,7.56,,47.59359,-54.27349
2018-04-08 08:40:00+00:00,78.0,77.0,6.8,7.73,,47.59359,-54.27349
2018-04-08 08:50:00+00:00,76.0,74.0,8.68,9.77,,47.59359,-54.27349
2018-04-08 09:00:00+00:00,58.0,62.0,8.48,9.08,,47.59359,-54.27349
2018-04-08 09:10:00+00:00,63.0,61.0,8.56,9.29,,47.59359,-54.27349
2018-04-08 09:20:00+00:00,60.0,60.0,7.94,8.98,,47.59359,-54.27349
2018-04-08 09:30:00+00:00,58.0,60.0,8.67,9.51,,47.59359,-54.27349
2018-04-08 09:40:00+00:00,62.0,65.0,7.73,8.34,,47.59359,-54.27349
2018-04-08 09:50:00+00:00,52.0,53.0,7.32,8.17,,47.59359,-54.27349
2018-04-08 10:00:00+00:00,61.0,60.0,8.1,8.67,,47.59359,-54.27349
2018-04-08 10:10:00+00:00,69.0,69.0,7.33,8.3,,47.59359,-54.27349
2018-04-08 10:20:00+00:00,67.0,72.0,7.6,8.74,,47.59359,-54.27349
2018-04-08 10:30:00+00:00,68.0,64.0,7.27,8.23,,47.59359,-54.27349
2018-04-08 10:40:00+00:00,64.0,62.0,6.98,8.13,,47.59359,-54.27349
2018-04-08 10:50:00+00:00,72.0,74.0,6.9,8.15,,47.59359,-54.27349
2018-04-08 11:00:00+00:00,69.0,70.0,7.0,8.01,,47.59359,-54.27349
2018-04-08 11:10:00+00:00,74.0,75.0,6.5,7.42,,47.59359,-54.27349
2018-04-08 11:20:00+00:00,80.0,83.0,5.69,6.32,,47.59359,-54.27349
2018-04-08 11:30:00+00:00,82.0,83.0,6.11,6.89,,47.59359,-54.27349
2018-04-08 11:40:00+00:00,83.0,86.0,6.23,6.86,,47.59359,-54.27349
2018-04-08 11:50:00+00:00,79.0,76.0,6.05,6.94,,47.59359,-54.27349
2018-04-08 12:00:00+00:00,80.0,75.0,4.75,5.94,,47.59359,-54.27349
2018-04-08 12:10:00+00:00,84.0,83.0,5.75,6.8,,47.59359,-54.27349
2018-04-08 12:20:00+00:00,83.0,82.0,5.82,6.42,,47.59359,-54.27349
2018-04-08 12:30:00+00:00,76.0,77.0,5.47,6.33,,47.59359,-54.27349
2018-04-08 12:40:00+00:00,82.0,85.0,5.39,6.94,,47.59359,-54.27349
2018-04-08 12:50:00+00:00,84.0,89.0,5.16,5.97,,47.59359,-54.27349
2018-04-08 13:00:00+00:00,82.0,85.0,4.51,5.1,,47.59359,-54.27349
2018-04-08 13:10:00+00:00,85.0,80.0,4.87,6.44,,47.59359,-54.27349
2018-04-08 13:20:00+00:00,90.0,74.0,3.62,5.46,,47.59359,-54.27349
2018-04-08 13:30:00+00:00,92.0,104.0,3.59,5.25,,47.59359,-54.27349
2018-04-08 13:40:00+00:00,106.0,129.0,3.3,4.95,,47.59359,-54.27349
2018-04-08 13:50:00+00:00,118.0,92.0,3.18,5.28,,47.59359,-54.27349
2018-04-08 14:00:00+00:00,103.0,110.0,3.43,5.38,,47.59359,-54.27349
2018-04-08 14:10:00+00:00,105.0,119.0,3.74,6.21,,47.59359,-54.27349
2018-04-08 14:20:00+00:00,94.0,77.0,2.57,4.46,,47.59359,-54.27349
2018-04-08 14:30:00+00:00,99.0,84.0,2.86,3.81,,47.59359,-54.27349
2018-04-08 14:40:00+00:00,117.0,108.0,3.18,5.03,,47.59359,-54.27349
2018-04-08 14:50:00+00:00,100.0,112.0,3.9,7.06,,47.59359,-54.27349
2018-04-08 15:00:00+00:00,99.0,108.0,2.48,4.92,,47.59359,-54.27349
2018-04-08 15:10:00+00:00,112.0,124.0,4.19,7.05,,47.59359,-54.27349
2018-04-08 15:20:00+00:00,99.0,144.0,2.29,5.39,,47.59359,-54.27349
2018-04-08 15:30:00+00:00,111.0,120.0,3.11,5.3,,47.59359,-54.27349
2018-04-08 15:40:00+00:00,103.0,100.0,3.83,5.36,,47.59359,-54.27349
2018-04-08 15:50:00+00:00,121.0,120.0,3.15,5.09,,47.59359,-54.27349
2018-04-08 16:00:00+00:00,112.0,134.0,3.44,5.56,,47.59359,-54.27349
2018-04-08 16:10:00+00:00,115.0,149.0,3.76,5.83,,47.59359,-54.27349
2018-04-08 16:20:00+00:00,107.0,108.0,2.81,5.07,,47.59359,-54.27349
2018-04-08 16:30:00+00:00,113.0,101.0,3.59,5.01,,47.59359,-54.27349
2018-04-08 16:40:00+00:00,118.0,120.0,2.65,4.9,,47.59359,-54.27349
2018-04-08 16:50:00+00:00,137.0,140.0,4.86,5.79,,47.59359,-54.27349
2018-04-08 17:00:00+00:00,137.0,137.0,5.11,5.91,,47.59359,-54.27349
2018-04-08 17:10:00+00:00,135.0,136.0,4.68,5.09,,47.59359,-54.27349
2018-04-08 17:20:00+00:00,132.0,133.0,4.51,5.44,,47.59359,-54.27349
2018-04-08 17:30:00+00:00,110.0,104.0,3.69,5.27,,47.59359,-54.27349
2018-04-08 17:40:00+00:00,120.0,126.0,2.55,4.03,,47.59359,-54.27349
2018-04-08 17:50:00+00:00,137.0,136.0,4.23,4.87,,47.59359,-54.27349
2018-04-08 18:00:00+00:00,138.0,135.0,3.32,3.64,,47.59359,-54.27349
2018-04-08 18:10:00+00:00,145.0,146.0,3.39,4.52,,47.59359,-54.27349
2018-04-08 18:20:00+00:00,154.0,152.0,4.55,5.29,,47.59359,-54.27349
2018-04-08 18:30:00+00:00,159.0,157.0,4.84,5.17,,47.59359,-54.27349
2018-04-08 18:40:00+00:00,141.0,138.0,3.89,4.47,,47.59359,-54.27349
2018-04-08 18:50:00+00:00,139.0,132.0,3.94,4.91,,47.59359,-54.27349
2018-04-08 19:00:00+00:00,133.0,137.0,3.56,3.96,,47.59359,-54.27349
2018-04-08 19:10:00+00:00,136.0,133.0,4.64,5.34,,47.59359,-54.27349
2018-04-08 19:20:00+00:00,133.0,144.0,4.78,5.93,,47.59359,-54.27349
2018-04-08 19:30:00+00:00,138.0,131.0,3.76,5.32,,47.59359,-54.27349
2018-04-08 19:40:00+00:00,128.0,140.0,4.56,6.51,,47.59359,-54.27349
2018-04-08 19:50:00+00:00,105.0,137.0,3.59,6.26,,47.59359,-54.27349
2018-04-08 20:00:00+00:00,111.0,145.0,4.3,7.93,,47.59359,-54.27349
2018-04-08 20:10:00+00:00,117.0,122.0,5.07,8.84,,47.59359,-54.27349
2018-04-08 20:20:00+00:00,127.0,138.0,3.69,5.86,,47.59359,-54.27349
2018-04-08 20:30:00+00:00,128.0,127.0,4.1,6.13,,47.59359,-54.27349
2018-04-08 20:40:00+00:00,114.0,71.0,2.72,5.45,,47.59359,-54.27349
2018-04-08 20:50:00+00:00,110.0,87.0,4.09,6.9,,47.59359,-54.27349
2018-04-08 21:00:00+00:00,118.0,120.0,3.48,6.36,,47.59359,-54.27349
2018-04-08 21:10:00+00:00,108.0,140.0,3.71,6.14,,47.59359,-54.27349
2018-04-08 21:20:00+00:00,101.0,130.0,3.93,5.94,,47.59359,-54.27349
2018-04-08 21:30:00+00:00,105.0,128.0,4.12,6.42,,47.59359,-54.27349
2018-04-08 21:40:00+00:00,107.0,99.0,4.32,6.27,,47.59359,-54.27349
2018-04-08 21:50:00+00:00,90.0,91.0,5.91,5.91,,47.59359,-54.27349
2018-04-08 22:50:00+00:00,117.0,117.0,5.98,7.01,,47.59359,-54.27349
2018-04-08 23:00:00+00:00,109.0,93.0,3.58,7.41,,47.59359,-54.27349
2018-04-08 23:10:00+00:00,107.0,114.0,6.84,10.5,,47.59359,-54.27349
2018-04-08 23:20:00+00:00,101.0,90.0,9.16,11.39,,47.59359,-54.27349
2018-04-08 23:30:00+00:00,84.0,83.0,8.83,11.69,,47.59359,-54.27349
